This demonstration page uses our WeatherBlox Daily Observations layout. Learn more.

Left ArrowRight Arrow

38.20091, -84.87328

Hourly Observations for April 21, 2016

Temp ( °F °C ) Dew Point ( °F °C ) Humidity (%) Winds ( mph kmh ) Pressure ( in mb ) Visibility ( mi km ) Precip ( " mm )
12:53 am 00:53 Clear 69 20.6 48 8.9 47 47 W 5 7 29.96 1014 10 16 0.00 0.00
1:53 am 01:53 Mostly Cloudy 70 21.1 50 10 49 49 W 5 7 29.95 1014 10 16 0.00 0.00
2:53 am 02:53 Clear 66 18.9 53 11.7 63 63 Calm 29.93 1014 10 16 0.00 0.00
3:53 am 03:53 Clear 64 17.8 53 11.7 68 68 Calm 29.92 1013 10 16 0.00 0.00
4:53 am 04:53 Clear 65 18.3 50 10 59 59 Calm 29.92 1013 10 16 0.00 0.00
5:53 am 05:53 Partly Cloudy 63 17.2 51 10.6 65 65 SSE 5 7 29.92 1013 10 16 0.00 0.00
6:53 am 06:53 Mostly Cloudy 66 18.9 49 9.4 54 54 S 6 9 29.92 1013 10 16 0.00 0.00
7:53 am 07:53 Mostly Cloudy 66 18.9 49 9.4 54 54 S 7 11 29.93 1014 10 16 0.00 0.00
8:53 am 08:53 Mostly Sunny 67 19.4 50 10 55 55 S 6 9 29.94 1014 10 16 0.00 0.00
9:53 am 09:53 Partly Cloudy 69 20.6 51 10.6 53 53 S 5 7 29.94 1014 10 16 0.00 0.00
10:53 am 10:53 Mostly Cloudy 69 20.6 51 10.6 53 53 S 9 15 29.94 1014 10 16 0.00 0.00
11:53 am 11:53 Cloudy 68 20 51 10.6 55 55 SW 8 13 29.94 1014 10 16 0.00 0.03
12:53 pm 12:53 Mostly Sunny 73 22.8 51 10.6 46 46 S 13 20 29.92 1013 10 16 0.00 0.00
1:53 pm 13:53 Mostly Cloudy 74 23.3 50 10 43 43 S 24 39 29.90 1013 10 16 0.00 0.00
2:53 pm 14:53 Mostly Cloudy 74 23.3 50 10 43 43 SSW 20 31 29.89 1012 10 16 0.00 0.00
3:53 pm 15:53 Mostly Cloudy 75 23.9 49 9.4 40 40 SSW 20 31 29.87 1012 10 16 0.00 0.00
4:53 pm 16:53 Partly Cloudy 76 24.4 49 9.4 39 39 SSW 23 37 29.86 1011 10 16 0.00 0.00
5:15 pm 17:15 Mostly Cloudy 69 20.6 55 12.8 61 61 WNW 16 26 29.88 1012 10 16 0.00 0.00
5:53 pm 17:53 Mostly Cloudy 67 19.4 54 12.2 63 63 W 14 22 29.89 1012 10 16 0.00 0.00
6:53 pm 18:53 Cloudy 65 18.3 53 11.7 66 66 SW 8 13 29.91 1013 10 16 0.00 0.00
7:53 pm 19:53 Cloudy with Light Rain 62 16.7 56 13.3 80 80 S 12 19 29.92 1013 10 16 0.02 0.51
8:53 pm 20:53 Mostly Cloudy 61 16.1 53 11.7 75 75 S 7 11 29.90 1012 10 16 0.01 0.25
9:53 pm 21:53 Partly Cloudy 61 16.1 52 11.1 72 72 S 13 20 29.88 1012 10 16 0.00 0.00
10:53 pm 22:53 Clear 59 15 53 11.7 81 81 SSE 5 7 29.88 1012 10 16 0.00 0.00
11:36 pm 23:36 Cloudy 60 15.6 54 12.2 80 80 S 6 9 29.91 1013 10 16 0.00 0.00
11:53 pm 23:53 Cloudy 60 15.6 54 12.2 80 80 S 7 11 29.88 1012 10 16 0.00 0.00

Powered by AerisWeather